Location: Street
(51.1247°N, 2.7429°W)
Time: 23:15:17
(UTC+01:00)

ISS - Visible Passes

Search period start: 19 October 2020 00:00
Search period end: 28 October 2020 23:00
Orbit: 418 x 419 km, 51.6° (Epoch: 19 October)

Date Brightness Start Highest point End Pass type
(mag) Time Alt. Az. Time Alt. Az. Time Alt. Az.
22 Oct -0.5 06:40:19 10° SSE 06:41:21 11° SE 06:42:24 10° ESE visible
24 Oct -1.5 06:39:31 10° SSW 06:42:14 23° SE 06:44:59 10° E visible
25 Oct -1.1 04:52:30 10° S 04:54:42 16° SE 04:56:52 10° E visible
26 Oct -0.7 04:07:11 11° SE 04:07:11 11° SE 04:08:09 10° ESE visible
26 Oct -2.8 05:40:10 10° SW 05:43:19 44° SSE 05:46:32 10° E visible
27 Oct -2.3 04:54:43 27° S 04:55:39 32° SSE 04:58:42 10° E visible
28 Oct -1.2 04:09:09 19° ESE 04:09:09 19° ESE 04:10:47 10° E visible
28 Oct -3.7 05:42:07 18° WSW 05:44:30 75° SSE 05:47:52 10° E visible
